sat.trackr.live / text

‹ back to catalog

STARLINK-11465 [DTC]

NORAD 62057 · 2024-217A

PAYLOAD ACTIVE UNKNOWN

§ Identity

Operator
Country
US
Launch date
2024-11-24
Launch site
AFWTR
Launch vehicle
Mass (kg)
RCS (m²)

Purposes: comms

External: N2YO · Heavens-Above · Gunter

§ Orbital elements

Epoch: 2026-05-25T03:20:37.933152Z

Period
91.73 min
Inclination
53.1573°
Eccentricity
0.0000865
Mean motion
15.69750507 rev/d
Perigee alt
359.0 km
Apogee alt
360.2 km
Semi-major
6,737.7 km
B*
1.1146e-3
RAAN
54.1820°
Arg perigee
96.0258°
Mean anomaly
264.0859°
Rev number
8,718

§ Raw data

STARLINK-11465 [DTC]1 62057U 24217A   26145.13932793  .00136929  00000+0  11146-2 0  99952 62057  53.1573  54.1820 0000865  96.0258 264.0859 15.69750507 87188

JSON: /api/v1/satellites/62057 · /tle

For live sub-satellite position, see the globe view (requires WebGL).

§ Visibility from observer

Set your observer location to see the next 7 days of passes ≥ 10°. The values pass through the URL so the page stays shareable.

No JS? Fill the form by hand. The geolocation button needs JavaScript.